GLD1136 SBNM-SSIJ

Flight info

Callsign GLD1136
Flight time N/A
Altitude 3500
Route DCT 2822S05407W 2823S05404W 2828S05358W 2838S05337W 2832S05334W 2821S05346W DCT
Aircraft C172/M-SDFGIRY/S

Departure

Time 2026-05-06 23:00
Airport Santo Ângelo Airport (SBNM)

Arrival

Time N/A
Airport João Batista Bos Filho Airport (SSIJ)
Time Latitude Longitude Altitude Speed Heading
2026-05-06 22:52 -28.27983 -54.17044 1060 ft 0 kts 11°
2026-05-06 22:53 -28.27980 -54.17044 1060 ft 4 kts 350°
2026-05-06 22:53 -28.27987 -54.17058 1060 ft 3 kts 171°
2026-05-06 22:54 -28.28028 -54.17053 1060 ft 9 kts 176°
2026-05-06 22:54 -28.28107 -54.17067 1060 ft 13 kts 193°
2026-05-06 22:54 -28.28182 -54.17083 1060 ft 7 kts 187°
2026-05-06 22:54 -28.28221 -54.17068 1060 ft 8 kts 133°
2026-05-06 22:55 -28.28246 -54.16987 1060 ft 13 kts 101°
2026-05-06 22:55 -28.28263 -54.16887 1060 ft 12 kts 101°
2026-05-06 22:55 -28.28278 -54.16799 1060 ft 11 kts 101°
2026-05-06 22:55 -28.28293 -54.16715 1060 ft 11 kts 100°
2026-05-06 22:56 -28.28307 -54.16633 1060 ft 10 kts 102°
2026-05-06 22:56 -28.28321 -54.16555 1060 ft 10 kts 101°
2026-05-06 22:56 -28.28335 -54.16478 1060 ft 10 kts 102°
2026-05-06 22:56 -28.28347 -54.16404 1060 ft 10 kts 99°
2026-05-06 22:57 -28.28358 -54.16322 1060 ft 11 kts 96°
2026-05-06 22:57 -28.28364 -54.16247 1060 ft 9 kts 90°
2026-05-06 22:57 -28.28349 -54.16173 1060 ft 11 kts 96°
2026-05-06 22:57 -28.28380 -54.16176 1060 ft 7 kts 258°
2026-05-06 22:58 -28.28381 -54.16192 1060 ft 0 kts 276°
2026-05-06 22:58 -28.28361 -54.16310 1060 ft 41 kts 281°
2026-05-06 22:58 -28.28277 -54.16799 1068 ft 81 kts 281°
2026-05-06 22:58 -28.28165 -54.17462 1146 ft 87 kts 281°
2026-05-06 22:59 -28.28041 -54.18142 1225 ft 87 kts 283°
2026-05-06 22:59 -28.28023 -54.18805 1313 ft 86 kts 252°
2026-05-06 22:59 -28.28410 -54.19300 1336 ft 87 kts 192°
2026-05-06 22:59 -28.28877 -54.19012 1432 ft 80 kts 117°
2026-05-06 23:00 -28.29132 -54.18478 1552 ft 76 kts 123°
2026-05-06 23:00 -28.29430 -54.17971 1684 ft 79 kts 124°
2026-05-06 23:00 -28.29747 -54.17453 1824 ft 81 kts 125°
2026-05-06 23:00 -28.30085 -54.16925 1963 ft 83 kts 127°
2026-05-06 23:01 -28.30442 -54.16394 2099 ft 85 kts 128°
2026-05-06 23:01 -28.30816 -54.15865 2231 ft 87 kts 129°
2026-05-06 23:01 -28.31217 -54.15361 2359 ft 88 kts 137°
2026-05-06 23:01 -28.31708 -54.14945 2488 ft 88 kts 147°
2026-05-06 23:02 -28.32235 -54.14595 2615 ft 88 kts 151°
2026-05-06 23:02 -28.32779 -54.14265 2741 ft 89 kts 152°
2026-05-06 23:02 -28.33329 -54.13943 2866 ft 89 kts 153°
2026-05-06 23:02 -28.33881 -54.13622 2992 ft 89 kts 153°
2026-05-06 23:03 -28.34428 -54.13306 3116 ft 89 kts 153°
2026-05-06 23:03 -28.34980 -54.12986 3240 ft 89 kts 153°
2026-05-06 23:03 -28.35523 -54.12672 3362 ft 88 kts 153°
2026-05-06 23:03 -28.36075 -54.12353 3474 ft 90 kts 153°
2026-05-06 23:04 -28.36651 -54.12020 3521 ft 96 kts 153°
2026-05-06 23:04 -28.37161 -54.11508 3515 ft 103 kts 115°
2026-05-06 23:04 -28.37395 -54.10735 3523 ft 107 kts 108°
2026-05-06 23:04 -28.37628 -54.09917 3509 ft 110 kts 108°
2026-05-06 23:05 -28.37871 -54.09087 3503 ft 111 kts 108°
2026-05-06 23:05 -28.38117 -54.08253 3501 ft 111 kts 108°
2026-05-06 23:05 -28.38385 -54.07430 3497 ft 110 kts 118°
2026-05-06 23:05 -28.38819 -54.06720 3500 ft 108 kts 128°
2026-05-06 23:06 -28.39290 -54.06053 3499 ft 108 kts 129°
2026-05-06 23:06 -28.39768 -54.05396 3499 ft 107 kts 129°
2026-05-06 23:06 -28.40242 -54.04751 3499 ft 107 kts 130°
2026-05-06 23:06 -28.40726 -54.04094 3541 ft 112 kts 130°
2026-05-06 23:07 -28.41259 -54.03372 3529 ft 125 kts 130°
2026-05-06 23:07 -28.41833 -54.02598 3429 ft 128 kts 130°
2026-05-06 23:07 -28.42368 -54.01874 3466 ft 115 kts 130°
2026-05-06 23:07 -28.42870 -54.01195 3486 ft 110 kts 130°
2026-05-06 23:08 -28.43356 -54.00535 3495 ft 108 kts 130°
2026-05-06 23:08 -28.43838 -53.99883 3498 ft 107 kts 130°
2026-05-06 23:08 -28.44319 -53.99231 3499 ft 107 kts 130°
2026-05-06 23:08 -28.44794 -53.98589 3500 ft 107 kts 130°
2026-05-06 23:09 -28.45274 -53.97939 3500 ft 107 kts 130°
2026-05-06 23:09 -28.45753 -53.97289 3500 ft 107 kts 130°
2026-05-06 23:09 -28.46232 -53.96640 3500 ft 107 kts 130°
2026-05-06 23:09 -28.46662 -53.95964 3500 ft 107 kts 122°
2026-05-06 23:10 -28.47041 -53.95235 3500 ft 107 kts 120°
2026-05-06 23:10 -28.47410 -53.94499 3500 ft 107 kts 119°
2026-05-06 23:10 -28.47776 -53.93761 3500 ft 107 kts 119°
2026-05-06 23:10 -28.48140 -53.93024 3500 ft 107 kts 119°
2026-05-06 23:11 -28.48505 -53.92282 3500 ft 107 kts 119°
2026-05-06 23:11 -28.48863 -53.91552 3500 ft 107 kts 119°
2026-05-06 23:11 -28.49227 -53.90812 3500 ft 107 kts 119°
2026-05-06 23:11 -28.49590 -53.90070 3500 ft 107 kts 119°
2026-05-06 23:12 -28.49954 -53.89329 3500 ft 107 kts 119°
2026-05-06 23:12 -28.50319 -53.88585 3500 ft 107 kts 119°
2026-05-06 23:12 -28.50678 -53.87853 3500 ft 108 kts 119°
2026-05-06 23:12 -28.51042 -53.87109 3500 ft 108 kts 119°
2026-05-06 23:13 -28.51407 -53.86364 3500 ft 108 kts 119°
2026-05-06 23:13 -28.51772 -53.85619 3500 ft 108 kts 119°
2026-05-06 23:13 -28.52137 -53.84875 3500 ft 108 kts 119°
2026-05-06 23:13 -28.52501 -53.84131 3500 ft 108 kts 119°
2026-05-06 23:14 -28.52866 -53.83386 3500 ft 108 kts 119°
2026-05-06 23:14 -28.53231 -53.82641 3500 ft 108 kts 119°
2026-05-06 23:14 -28.53590 -53.81908 3500 ft 108 kts 119°
2026-05-06 23:14 -28.53954 -53.81164 3500 ft 108 kts 119°
2026-05-06 23:15 -28.54320 -53.80416 3500 ft 108 kts 119°
2026-05-06 23:15 -28.54683 -53.79673 3500 ft 108 kts 119°
2026-05-06 23:15 -28.55048 -53.78928 3500 ft 108 kts 119°
2026-05-06 23:15 -28.55408 -53.78192 3500 ft 108 kts 119°
2026-05-06 23:16 -28.55773 -53.77444 3500 ft 108 kts 119°
2026-05-06 23:16 -28.56138 -53.76698 3500 ft 108 kts 119°
2026-05-06 23:16 -28.56498 -53.75962 3500 ft 108 kts 119°
2026-05-06 23:16 -28.56864 -53.75214 3500 ft 108 kts 119°
2026-05-06 23:17 -28.57228 -53.74467 3500 ft 108 kts 119°
2026-05-06 23:17 -28.57592 -53.73722 3500 ft 108 kts 119°
2026-05-06 23:17 -28.57953 -53.72984 3500 ft 108 kts 119°
2026-05-06 23:17 -28.58317 -53.72237 3500 ft 108 kts 119°
2026-05-06 23:18 -28.58681 -53.71493 3500 ft 108 kts 119°
2026-05-06 23:18 -28.59045 -53.70747 3500 ft 108 kts 119°
2026-05-06 23:18 -28.59410 -53.69999 3500 ft 108 kts 119°
2026-05-06 23:18 -28.59769 -53.69263 3500 ft 108 kts 119°
2026-05-06 23:19 -28.60134 -53.68516 3500 ft 108 kts 119°
2026-05-06 23:19 -28.60498 -53.67770 3500 ft 108 kts 119°
2026-05-06 23:19 -28.60863 -53.67021 3500 ft 108 kts 119°
2026-05-06 23:19 -28.61223 -53.66282 3500 ft 108 kts 119°
2026-05-06 23:20 -28.61588 -53.65533 3500 ft 108 kts 119°
2026-05-06 23:20 -28.61947 -53.64797 3500 ft 108 kts 119°
2026-05-06 23:20 -28.62310 -53.64051 3500 ft 108 kts 119°
2026-05-06 23:20 -28.62674 -53.63304 3500 ft 108 kts 119°
2026-05-06 23:21 -28.63037 -53.62557 3500 ft 108 kts 119°
2026-05-06 23:21 -28.63397 -53.61815 3500 ft 108 kts 119°
2026-05-06 23:21 -28.63726 -53.61043 3495 ft 108 kts 102°
2026-05-06 23:21 -28.63470 -53.60304 3492 ft 107 kts 36°
2026-05-06 23:22 -28.62758 -53.60141 3519 ft 105 kts
2026-05-06 23:22 -28.62028 -53.59994 3509 ft 107 kts 14°
2026-05-06 23:22 -28.61313 -53.59744 3503 ft 108 kts 19°
2026-05-06 23:22 -28.60616 -53.59456 3501 ft 108 kts 20°
2026-05-06 23:23 -28.59913 -53.59147 3500 ft 108 kts 21°
2026-05-06 23:23 -28.59214 -53.58833 3500 ft 108 kts 21°
2026-05-06 23:23 -28.58525 -53.58519 3500 ft 108 kts 22°
2026-05-06 23:23 -28.57828 -53.58202 3500 ft 108 kts 22°
2026-05-06 23:24 -28.57131 -53.57883 3500 ft 108 kts 22°
2026-05-06 23:24 -28.56435 -53.57566 3500 ft 108 kts 22°
2026-05-06 23:24 -28.55737 -53.57248 3500 ft 108 kts 22°
2026-05-06 23:24 -28.55049 -53.56934 3500 ft 108 kts 22°
2026-05-06 23:25 -28.54352 -53.56617 3500 ft 108 kts 21°
2026-05-06 23:25 -28.53633 -53.56476 3486 ft 103 kts 342°
2026-05-06 23:25 -28.53133 -53.56961 3491 ft 89 kts 311°
2026-05-06 23:25 -28.52728 -53.57467 3428 ft 88 kts 313°
2026-05-06 23:26 -28.52297 -53.57978 3309 ft 90 kts 314°
2026-05-06 23:26 -28.51856 -53.58489 3189 ft 91 kts 314°
2026-05-06 23:26 -28.51406 -53.59005 3069 ft 92 kts 315°
2026-05-06 23:26 -28.50968 -53.59506 2994 ft 88 kts 315°
2026-05-06 23:27 -28.50547 -53.59987 2984 ft 88 kts 315°
2026-05-06 23:27 -28.50105 -53.60490 2998 ft 91 kts 315°
2026-05-06 23:27 -28.49663 -53.60994 3041 ft 91 kts 315°
2026-05-06 23:27 -28.49196 -53.61527 3034 ft 100 kts 315°
2026-05-06 23:28 -28.48690 -53.62102 3015 ft 105 kts 315°
2026-05-06 23:28 -28.48168 -53.62697 3006 ft 107 kts 315°
2026-05-06 23:28 -28.47639 -53.63299 3002 ft 108 kts 315°
2026-05-06 23:28 -28.47109 -53.63902 3000 ft 108 kts 315°
2026-05-06 23:29 -28.46584 -53.64500 3000 ft 108 kts 315°
2026-05-06 23:29 -28.46053 -53.65104 3000 ft 108 kts 315°
2026-05-06 23:29 -28.45522 -53.65709 3000 ft 108 kts 315°
2026-05-06 23:29 -28.44992 -53.66312 3000 ft 108 kts 315°
2026-05-06 23:30 -28.44463 -53.66915 3000 ft 108 kts 315°
2026-05-06 23:30 -28.43932 -53.67519 3000 ft 108 kts 315°
2026-05-06 23:30 -28.43403 -53.68122 2987 ft 109 kts 315°
2026-05-06 23:30 -28.42860 -53.68739 2922 ft 113 kts 315°
2026-05-06 23:31 -28.42307 -53.69368 2900 ft 112 kts 315°
2026-05-06 23:31 -28.41761 -53.69990 2896 ft 110 kts 315°
2026-05-06 23:31 -28.41223 -53.70602 2897 ft 109 kts 315°
2026-05-06 23:31 -28.40688 -53.71210 2898 ft 108 kts 315°
2026-05-06 23:32 -28.40157 -53.71814 2899 ft 108 kts 315°
2026-05-06 23:32 -28.39805 -53.72215 2900 ft 108 kts 315°